Location: Miramichi City (Newcastle)
(46.9830°N, 65.5670°W)
Time: 15:27:10
(UTC-03:00)

Iridium 12 - Visible Passes

Search period start: 28 July 2014 00:00
Search period end: 07 August 2014 00:00
Orbit: 776 x 779 km, 86.4° (Epoch: 28 July)

Date Brightness Start Highest point End Pass type
(mag) Time Alt. Az. Time Alt. Az. Time Alt. Az.
28 Jul 7.5 22:17:48 10° NNW 22:22:12 28° W 22:26:35 10° SW visible
29 Jul 6.6 21:43:52 10° NNW 21:48:52 49° W 21:53:51 10° SSW visible
30 Jul 8.4 22:53:27 10° NW 22:55:16 12° WNW 22:57:05 10° W visible
31 Jul 8.1 22:18:21 10° NNW 22:22:08 21° WNW 22:25:54 10° SW visible
01 Aug 7.2 21:44:11 10° NNW 21:48:52 35° W 21:53:33 10° SSW visible
03 Aug 8.3 22:19:11 10° NW 22:22:01 15° WNW 22:24:51 10° WSW visible
04 Aug 7.9 21:44:37 10° NNW 21:48:50 25° W 21:53:02 10° SW visible
06 Aug 8.9 22:21:03 10° WNW 22:21:51 10° WNW 22:22:39 10° W visible
